Huntsville Madison, AL

8:44 AM CDT on March 24, 2017 (GMT -0500)
Huntsville Madison

Weather History for KMDQ - November, 2012

Change the Weather History Date:

Tuesday, November 6, 2012

  Actual Average (KHSV) Record (KHSV)
Temperature  
Mean Temperature 45 °F -  
Max Temperature 48 °F 62 °F 84 °F (1914)
Min Temperature 42 °F 39 °F 22 °F (1939)
Degree Days  
Heating Degree Days 20    
Moisture  
Dew Point 43 °F    
Average Humidity 91    
Maximum Humidity 100    
Minimum Humidity 76    
Precipitation  
Precipitation 0.15 in - - ()
Sea Level Pressure  
Sea Level Pressure 29.98 in    
Wind  
Wind Speed 2 mph (NNW)    
Max Wind Speed 6 mph    
Max Gust Speed -    
Visibility 7 miles    
Events Rain    
Averages and records for this station are not official NWS values.
T = Trace of Precipitation, MM = Missing Value Source: NWS Daily Summary

Daily Weather History Graph

Daily Weather History Graph

Search for Another Location

Airport or City:

Trip Planner

Search our weather history database for the weather conditions in past years. The results will help you decide how hot, cold, wet, or windy it might be!

Date:

Astronomy

Nov. 06, 2012 Rise Set
Actual Time 6:12 AM CST 4:47 PM CST
Civil Twilight 5:45 AM CST 5:13 PM CST
Nautical Twilight 5:15 AM CST 5:43 PM CST
Astronomical Twilight 4:45 AM CST 6:13 PM CST
Moon 11:22 PM CST (11/6) 12:06 PM CST (11/6)
Length of Visible Light 11h 27m
Length of Day
10h 34m
Waning Gibbous, 53% of the Moon is Illuminated
Nov 6
Waning Gibbous
Nov 6
Last Quarter
Nov 13
New
Nov 20
First Quarter
Nov 28
Full

Hourly Weather History & Observations

Time (CST) Temp. Windchill Dew Point Humidity Pressure Visibility Wind Dir Wind Speed Gust Speed Precip Events Conditions
12:15 AM 44.6 °F 43.1 °F 44.6 °F 100% 29.99 in 7.0 mi North 3.5 mph - 0.01 in Rain Light Rain
12:35 AM 44.6 °F - 44.6 °F 100% 29.99 in 7.0 mi Calm Calm - 0.03 in Rain Rain
12:55 AM 44.6 °F 43.1 °F 44.6 °F 100% 29.99 in 7.0 mi NNE 3.5 mph - 0.03 in Rain Light Rain
1:15 AM 44.6 °F - 44.6 °F 100% 29.98 in 7.0 mi Calm Calm - 0.01 in Rain Light Rain
1:35 AM 44.6 °F 43.1 °F 44.6 °F 100% 29.98 in 7.0 mi NNE 3.5 mph - 0.01 in Rain Light Rain
1:55 AM 44.6 °F 43.1 °F 44.6 °F 100% 29.98 in 7.0 mi North 3.5 mph - 0.02 in Rain Light Rain
2:35 AM 44.6 °F 43.1 °F 44.6 °F 100% 29.97 in 5.0 mi North 3.5 mph - 0.01 in Rain Light Rain
3:15 AM 42.8 °F 41.1 °F 42.8 °F 100% 29.97 in 5.0 mi North 3.5 mph - N/A Rain Light Rain
3:35 AM 42.8 °F 40.1 °F 42.8 °F 100% 29.98 in 5.0 mi North 4.6 mph - 0.01 in Rain Light Rain
3:55 AM 42.8 °F 41.1 °F 42.8 °F 100% 29.98 in 5.0 mi North 3.5 mph - 0.02 in Rain Light Rain
4:15 AM 42.8 °F 39.3 °F 42.8 °F 100% 29.98 in 5.0 mi North 5.8 mph - N/A Rain Light Rain
4:35 AM 42.8 °F 40.1 °F 42.8 °F 100% 29.99 in 5.0 mi North 4.6 mph - N/A   Drizzle
4:55 AM 42.8 °F 41.1 °F 42.8 °F 100% 29.99 in 5.0 mi NNW 3.5 mph - N/A Rain Rain
5:15 AM 42.8 °F 41.1 °F 42.8 °F 100% 29.98 in 5.0 mi North 3.5 mph - N/A   Drizzle
5:35 AM 42.8 °F - 42.8 °F 100% 29.98 in 5.0 mi Calm Calm - N/A   Drizzle
5:55 AM 42.8 °F - 42.8 °F 100% 29.98 in 5.0 mi Calm Calm - N/A   Overcast
6:15 AM 42.8 °F 41.1 °F 42.8 °F 100% 29.99 in 5.0 mi NNW 3.5 mph - N/A   Overcast
6:35 AM 42.8 °F - 42.8 °F 100% 29.98 in 3.0 mi Calm Calm - N/A   Overcast
6:55 AM 42.8 °F - 42.8 °F 100% 29.99 in 5.0 mi Calm Calm - N/A   Overcast
7:15 AM 42.8 °F - 42.8 °F 100% 29.99 in 5.0 mi Calm Calm - N/A   Overcast
7:35 AM 44.6 °F 43.1 °F 44.6 °F 100% 30.00 in 5.0 mi NNW 3.5 mph - N/A   Overcast
7:55 AM 44.6 °F 41.4 °F 44.6 °F 100% 30.00 in 5.0 mi NNW 5.8 mph - N/A   Overcast
8:15 AM 44.6 °F 41.4 °F 44.6 °F 100% 30.01 in 5.0 mi North 5.8 mph - N/A   Overcast
8:35 AM - - - N/A% - - North - - N/A   Unknown
8:55 AM - - - N/A% - - North - - N/A   Unknown
9:15 AM - - - N/A% - - North - - N/A   Unknown
9:35 AM - - - N/A% - - North - - N/A   Unknown
9:55 AM 44.6 °F 43.1 °F 41.0 °F 87% 30.02 in 7.0 mi NNW 3.5 mph - 0.03 in   Overcast
10:15 AM 46.4 °F - 42.8 °F 87% 30.02 in 10.0 mi Calm Calm - N/A   Overcast
10:35 AM 46.4 °F 44.3 °F 42.8 °F 87% 30.03 in 10.0 mi NW 4.6 mph - N/A   Overcast
10:55 AM 46.4 °F 45.2 °F 42.8 °F 87% 30.02 in 10.0 mi NNW 3.5 mph - N/A   Overcast
11:15 AM 46.4 °F - 42.8 °F 87% 30.01 in 10.0 mi Calm Calm - N/A   Overcast
11:35 AM 46.4 °F - 42.8 °F 87% 30.01 in 10.0 mi Calm Calm - N/A   Overcast
11:55 AM 46.4 °F - 42.8 °F 87% 29.99 in 10.0 mi Calm Calm - N/A   Overcast
12:15 PM 46.4 °F - 42.8 °F 87% 29.98 in 7.0 mi Calm Calm - N/A   Overcast
12:35 PM 46.4 °F - 42.8 °F 87% 29.99 in 10.0 mi Calm Calm - N/A   Overcast
12:55 PM 48.2 °F - 42.8 °F 82% 29.98 in 10.0 mi Calm Calm - N/A   Overcast
1:15 PM 48.2 °F - 42.8 °F 82% 29.99 in 10.0 mi NW 3.5 mph - N/A   Overcast
1:35 PM 48.2 °F - 42.8 °F 82% 29.98 in 10.0 mi Calm Calm - N/A   Overcast
1:55 PM 48.2 °F - 42.8 °F 82% 29.97 in 10.0 mi Calm Calm - N/A   Overcast
2:15 PM 48.2 °F - 42.8 °F 82% 29.97 in 10.0 mi Calm Calm - N/A   Overcast
2:35 PM 48.2 °F - 42.8 °F 82% 29.97 in 10.0 mi Calm Calm - N/A   Overcast
2:55 PM 48.2 °F - 42.8 °F 82% 29.96 in 10.0 mi Calm Calm - N/A   Overcast
3:15 PM 48.2 °F - 42.8 °F 82% 29.96 in 10.0 mi Calm Calm - N/A   Overcast
3:35 PM 48.2 °F - 41.0 °F 76% 29.96 in 10.0 mi Calm Calm - N/A   Overcast
3:55 PM 48.2 °F - 41.0 °F 76% 29.96 in 10.0 mi Calm Calm - N/A   Overcast
4:15 PM 48.2 °F - 41.0 °F 76% 29.94 in 10.0 mi Calm Calm - N/A   Overcast
4:35 PM 48.2 °F - 42.8 °F 82% 29.95 in 10.0 mi Calm Calm - N/A   Overcast
4:55 PM 48.2 °F - 42.8 °F 82% 29.95 in 10.0 mi Calm Calm - N/A   Overcast
5:15 PM 48.2 °F - 42.8 °F 82% 29.96 in 10.0 mi Calm Calm - N/A   Overcast
5:35 PM 48.2 °F - 42.8 °F 82% 29.97 in 10.0 mi Calm Calm - N/A   Overcast
5:55 PM 48.2 °F - 42.8 °F 82% 29.97 in 10.0 mi Calm Calm - N/A   Overcast
6:15 PM 46.4 °F - 42.8 °F 87% 29.97 in 10.0 mi Calm Calm - N/A   Overcast
6:35 PM 46.4 °F - 42.8 °F 87% 29.97 in 10.0 mi Calm Calm - N/A   Overcast
6:55 PM 46.4 °F - 42.8 °F 87% 29.97 in 10.0 mi Calm Calm - N/A   Overcast
7:15 PM 46.4 °F - 42.8 °F 87% 29.97 in 10.0 mi Calm Calm - N/A Rain Light Rain
7:35 PM 46.4 °F - 42.8 °F 87% 29.97 in 7.0 mi Calm Calm - N/A   Drizzle
7:55 PM 46.4 °F - 42.8 °F 87% 29.97 in 5.0 mi Calm Calm - N/A   Overcast
8:15 PM 46.4 °F - 44.6 °F 93% 29.98 in 7.0 mi Calm Calm - N/A Rain Light Rain
8:35 PM 46.4 °F - 44.6 °F 93% 29.97 in 5.0 mi Calm Calm - N/A Rain Rain
8:55 PM 46.4 °F - 44.6 °F 93% 29.97 in 5.0 mi Calm Calm - N/A   Overcast
9:15 PM 46.4 °F - 44.6 °F 93% 29.97 in 4.0 mi Calm Calm - 0.01 in Rain Light Rain
9:35 PM 46.4 °F - 44.6 °F 93% 29.97 in 5.0 mi Calm Calm - 0.01 in   Overcast
9:55 PM 46.4 °F - 44.6 °F 93% 29.97 in 4.0 mi Calm Calm - 0.01 in Rain Rain
10:15 PM 46.4 °F 45.2 °F 44.6 °F 93% 29.97 in 4.0 mi WSW 3.5 mph - 0.03 in Rain Light Rain
10:35 PM 46.4 °F 45.2 °F 44.6 °F 93% 29.97 in 5.0 mi WSW 3.5 mph - 0.03 in Rain Light Rain
10:55 PM 46.4 °F - 44.6 °F 93% 29.96 in 5.0 mi Calm Calm - 0.03 in   Overcast
11:15 PM 46.4 °F - 44.6 °F 93% 29.96 in 5.0 mi Calm Calm - N/A   Overcast
11:35 PM 46.4 °F 45.2 °F 44.6 °F 93% 29.96 in 5.0 mi WSW 3.5 mph - N/A   Overcast
11:55 PM 46.4 °F 43.5 °F 44.6 °F 93% 29.96 in 7.0 mi West 5.8 mph - N/A   Overcast